CW7615 Weather Reports


time (UTC)temp
F
wind
direction
speed
knots
gust
knots
rain 1hr
in
rain 24hr
in
rain mn
in
humidity
%
barometer
mb
20260508110004 65 117 7.0 12.2 0.00 0.00 0.00 75 1012.9
20260508105503 65 137 4.3 9.6 0.00 0.00 0.00 76 1012.8
20260508105005 64 166 5.2 13.0 0.00 0.00 0.00 75 1013.1
20260508104502 64 96 7.8 13.9 0.00 0.00 0.00 77 1013.1
20260508104002 64 106 8.7 13.9 0.00 0.00 0.00 76 1013.2
20260508103502 64 104 4.3 14.8 0.00 0.00 0.00 77 1013.6
20260508103100 64 103 7.0 14.8 0.00 0.00 0.00 77 1013.5
20260508102559 64 115 7.8 12.2 0.00 0.00 0.00 77 1013.4
20260508102101 64 130 5.2 13.0 0.00 0.00 0.00 78 1013.4
20260508101559 64 215 7.0 14.8 0.00 0.00 0.00 77 1013.3
20260508101058 64 143 7.0 15.6 0.00 0.00 0.00 78 1013.4
20260508100600 64 109 8.7 15.6 0.00 0.00 0.00 77 1013.2
20260508100057 64 128 8.7 15.6 0.00 0.00 0.00 78 1013.1
20260508095555 64 105 5.2 13.0 0.00 0.00 0.00 79 1013.1
20260508095054 64 159 7.0 13.0 0.00 0.00 0.00 80 1013.1
20260508094600 63 104 6.1 13.9 0.00 0.00 0.00 81 1013.0
20260508094053 63 111 9.6 13.9 0.00 0.00 0.00 81 1013.1
20260508093553 63 138 6.1 13.9 0.00 0.00 0.00 83 1013.0
20260508093059 62 115 8.7 13.9 0.00 0.00 0.00 83 1013.2
20260508092553 62 122 10.4 15.6 0.00 0.00 0.00 83 1013.1
20260508092051 62 120 9.6 16.5 0.00 0.00 0.00 83 1013.1
20260508091604 62 111 9.6 15.6 0.00 0.00 0.00 83 1012.9
20260508091051 63 111 8.7 15.6 0.00 0.00 0.00 84 1013.0
20260508090551 62 161 8.7 15.6 0.00 0.00 0.00 84 1012.9
20260508090057 62 130 8.7 17.4 0.00 0.00 0.00 84 1012.9
20260508085550 62 129 9.6 17.4 0.00 0.00 0.00 83 1012.8
20260508085048 63 140 8.7 16.5 0.00 0.00 0.00 82 1012.8
20260508084547 64 128 9.6 16.5 0.00 0.00 0.00 80 1012.9
20260508084046 64 138 8.7 16.5 0.00 0.00 0.00 76 1012.8
20260508083546 64 117 9.6 15.6 0.00 0.00 0.00 75 1013.0
20260508083050 64 126 9.6 13.0 0.00 0.00 0.00 73 1012.9
20260508082546 65 100 9.6 13.0 0.00 0.00 0.00 73 1012.8
20260508082042 64 87 5.2 14.8 0.00 0.00 0.00 73 1012.6
20260508081547 64 123 8.7 14.8 0.00 0.00 0.00 71 1012.7
20260508081042 64 111 7.8 13.0 0.00 0.00 0.00 70 1012.5
20260508080540 64 159 3.5 13.0 0.00 0.00 0.00 72 1012.5
20260508080043 64 130 4.3 12.2 0.00 0.00 0.00 71 1012.4
20260508075540 64 129 6.1 13.0 0.00 0.00 0.00 73 1012.4
20260508075034 63 88 7.8 13.0 0.00 0.00 0.00 74 1012.6
20260508074533 63 110 7.0 10.4 0.00 0.00 0.00 76 1012.5
20260508074032 62 127 4.3 9.6 0.00 0.00 0.00 77 1012.6
20260508073532 62 25 6.1 9.6 0.00 0.00 0.00 76 1012.7
20260508073034 62 92 3.5 11.3 0.00 0.00 0.00 76 1012.9
20260508072531 62 136 4.3 11.3 0.00 0.00 0.00 77 1013.1
20260508072030 62 130 2.6 8.7 0.00 0.00 0.00 77 1013.1
20260508071530 62 113 1.7 4.3 0.00 0.00 0.00 77 1013.0
20260508071032 62 151 0.0 4.3 0.00 0.00 0.00 76 1012.9
20260508070531 62 124 0.9 2.6 0.00 0.00 0.00 76 1013.0
20260508070030 62 213 0.0 1.7 0.00 0.00 0.00 75 1012.9
20260508065529 61 213 0.0 3.5 0.00 0.00 0.00 75 1012.8
20260508065025 61 278 0.9 3.5 0.00 0.00 0.00 75 1012.8
20260508064528 61 17 1.7 3.5 0.00 0.00 0.00 75 1012.6
20260508064026 60 16 0.0 3.5 0.00 0.00 0.00 76 1012.6
20260508063524 59 16 0.9 4.3 0.00 0.00 0.00 77 1012.4
20260508063021 59 11 1.7 4.3 0.00 0.00 0.00 78 1012.3
20260508062522 58 331 1.7 3.5 0.00 0.00 0.00 78 1012.3
20260508062019 58 332 0.0 3.5 0.00 0.00 0.00 78 1012.3
20260508061518 58 332 0.9 3.5 0.00 0.00 0.00 78 1012.2
20260508061018 58 303 1.7 3.5 0.00 0.00 0.00 78 1012.0
20260508060521 57 319 0.9 3.5 0.00 0.00 0.00 78 1011.8
20260508060016 57 299 0.9 7.8 0.00 0.00 0.00 78 1011.5
20260508055515 57 5 3.5 7.8 0.00 0.00 0.00 78 1011.4
20260508055016 57 355 4.3 7.0 0.00 0.00 0.00 76 1011.4
20260508054515 57 360 3.5 5.2 0.00 0.00 0.00 77 1011.7
20260508054012 57 172 0.9 5.2 0.00 0.00 0.00 78 1011.8
20260508053515 57 171 0.9 5.2 0.00 0.00 0.00 79 1011.8
20260508053013 57 348 0.0 2.6 0.00 0.00 0.00 77 1011.8
20260508052511 57 348 0.9 3.5 0.00 0.00 0.00 76 1011.7
20260508052011 57 355 1.7 3.5 0.00 0.00 0.00 76 1011.4
20260508051523 57 337 0.9 4.3 0.00 0.00 0.00 76 1011.3
20260508051011 57 50 1.7 7.8 0.00 0.00 0.00 76 1011.3
20260508050511 57 360 5.2 7.8 0.00 0.00 0.00 75 1011.5
20260508050010 57 355 4.3 7.0 0.00 0.00 0.00 75 1011.4
20260508045509 57 19 4.3 7.0 0.00 0.00 0.00 75 1011.4
20260508045009 57 360 4.3 7.0 0.00 0.00 0.00 74 1011.5
20260508044511 57 355 3.5 5.2 0.00 0.00 0.00 74 1011.8
20260508044009 57 355 2.6 5.2 0.00 0.00 0.00 74 1011.9
20260508043509 57 332 2.6 4.3 0.00 0.00 0.00 74 1011.8
20260508043018 57 355 1.7 7.0 0.00 0.00 0.00 74 1012.0
20260508042510 57 333 1.7 7.0 0.00 0.00 0.00 74 1011.9
20260508042008 57 5 2.6 5.2 0.00 0.00 0.00 73 1011.8
20260508041514 57 5 1.7 3.5 0.00 0.00 0.00 74 1011.8
20260508041009 57 320 0.9 4.3 0.00 0.00 0.00 74 1011.7
20260508040508 57 340 0.9 7.0 0.00 0.00 0.00 74 1011.7
20260508040010 56 335 2.6 7.0 0.00 0.00 0.00 73 1011.6
20260508035512 56 336 0.9 2.6 0.00 0.00 0.00 74 1011.7
20260508035007 56 333 0.9 7.0 0.00 0.00 0.00 74 1011.7
20260508034508 56 331 1.7 7.8 0.00 0.00 0.00 74 1011.6
20260508034007 56 330 1.7 7.8 0.00 0.00 0.00 74 1011.5
20260508033507 56 5 2.6 7.0 0.00 0.00 0.00 74 1011.7
20260508033008 56 333 3.5 7.0 0.00 0.00 0.00 74 1011.7
20260508032507 56 340 3.5 7.0 0.00 0.00 0.00 75 1011.6
20260508032006 55 333 3.5 7.0 0.00 0.00 0.00 75 1011.6
20260508031507 55 341 3.5 7.0 0.00 0.00 0.00 75 1011.5
20260508031008 55 320 3.5 7.0 0.00 0.00 0.00 75 1011.6
20260508030505 55 344 3.5 5.2 0.00 0.00 0.00 75 1011.8
20260508030005 55 348 2.6 7.0 0.00 0.00 0.00 75 1011.9
20260508025510 56 343 3.5 7.0 0.00 0.00 0.00 76 1011.9
20260508025003 56 344 3.5 7.0 0.00 0.00 0.00 76 1011.9
20260508024503 56 350 2.6 7.0 0.00 0.00 0.00 76 1011.8
20260508024003 56 355 2.6 7.0 0.00 0.00 0.00 76 1011.8
20260508023502 56 333 3.5 7.0 0.00 0.00 0.00 76 1011.9
20260508023002 56 323 2.6 7.0 0.00 0.00 0.00 77 1011.7
20260508022502 56 324 2.6 5.2 0.00 0.00 0.00 77 1011.7
20260508022002 56 349 2.6 5.2 0.00 0.00 0.00 77 1011.7
20260508021501 56 321 2.6 7.0 0.00 0.00 0.00 77 1011.6
20260508021003 56 349 4.3 7.8 0.00 0.00 0.00 77 1011.6
20260508020501 56 355 4.3 7.8 0.00 0.00 0.00 77 1011.7
20260508015600 56 332 3.5 7.0 0.00 0.00 0.00 77 1011.6
20260508015059 56 360 4.3 7.8 0.00 0.00 0.00 77 1011.5
20260508014600 56 23 4.3 7.8 0.00 0.00 0.00 77 1011.4
20260508014058 56 355 2.6 7.0 0.00 0.00 0.00 77 1011.7
20260508013556 57 5 4.3 7.8 0.00 0.00 0.00 77 1011.7
20260508013055 57 360 4.3 7.8 0.00 0.00 0.00 77 1011.7
20260508012557 57 5 4.3 7.8 0.00 0.00 0.00 77 1011.8
20260508012056 57 5 5.2 8.7 0.00 0.00 0.00 77 1011.7
20260508011607 57 360 6.1 8.7 0.00 0.00 0.00 77 1011.8
20260508011054 57 5 5.2 8.7 0.00 0.00 0.00 77 1011.9
20260508010553 57 5 4.3 7.8 0.00 0.00 0.00 77 1012.0
20260508010052 57 5 5.2 8.7 0.00 0.00 0.00 77 1012.1
20260508005552 57 360 6.1 8.7 0.00 0.00 0.00 77 1012.2
20260508005052 57 13 6.1 8.7 0.00 0.00 0.00 77 1012.1
20260508004557 57 5 4.3 7.8 0.00 0.00 0.00 77 1012.3
20260508004052 57 5 4.3 8.7 0.00 0.00 0.00 77 1012.3
20260508003552 58 5 5.2 9.6 0.00 0.00 0.00 77 1012.2
20260508003050 57 355 7.0 9.6 0.00 0.00 0.00 77 1012.4
20260508002549 57 347 7.0 9.6 0.00 0.00 0.00 77 1012.5
20260508002049 57 9 7.0 8.7 0.00 0.00 0.00 78 1012.6
20260508001552 57 5 5.2 7.8 0.00 0.00 0.00 78 1012.7
20260508001047 57 5 5.2 8.7 0.00 0.00 0.00 78 1012.8
20260508000547 57 5 6.1 8.7 0.00 0.00 0.00 78 1012.8
20260508000048 57 20 5.2 7.8 0.00 0.00 0.00 78 1013.0
20260507235547 57 360 5.2 7.8 0.00 0.00 0.00 78 1013.0
20260507235048 57 355 5.2 7.0 0.00 0.00 0.00 78 1012.9
20260507234552 57 355 4.3 7.0 0.00 0.00 0.00 78 1013.0
20260507234045 57 18 4.3 7.8 0.00 0.00 0.00 77 1013.0
20260507233545 57 5 5.2 7.8 0.00 0.00 0.00 77 1013.1
20260507233045 57 355 6.1 7.8 0.00 0.00 0.00 77 1013.1
20260507232544 57 355 4.3 7.0 0.00 0.00 0.00 77 1013.2
20260507232045 57 350 3.5 7.8 0.00 0.00 0.00 77 1013.2
20260507231549 57 351 4.3 7.8 0.00 0.00 0.00 77 1013.2
20260507231046 57 355 4.3 7.8 0.00 0.00 0.00 77 1013.3
20260507230541 57 346 5.2 7.8 0.00 0.00 0.00 77 1013.4
20260507230040 57 348 4.3 7.0 0.00 0.00 0.00 76 1013.4
20260507225539 57 350 3.5 7.0 0.00 0.00 0.00 76 1013.4
20260507225037 57 348 2.6 4.3 0.00 0.00 0.00 76 1013.4
20260507224538 58 350 1.7 5.2 0.00 0.00 0.00 75 1013.3
20260507224035 58 346 2.6 5.2 0.00 0.00 0.00 75 1013.2
20260507223534 58 351 3.5 5.2 0.00 0.00 0.00 74 1013.3
20260507223034 58 340 2.6 5.2 0.00 0.00 0.00 74 1013.3
20260507222532 59 325 1.7 4.3 0.00 0.00 0.00 75 1013.3
20260507222032 59 43 0.0 0.0 0.00 0.00 0.00 75 1013.2
20260507221531 59 43 0.0 1.7 0.00 0.00 0.00 74 1013.1
20260507221033 59 43 0.0 2.6 0.00 0.00 0.00 74 1013.0
20260507220528 59 44 0.0 1.7 0.00 0.00 0.00 74 1012.9
20260507220029 59 44 0.0 2.6 0.00 0.00 0.00 73 1012.7
20260507215527 59 44 0.9 2.6 0.00 0.00 0.00 72 1012.8
20260507215025 59 27 0.0 1.7 0.00 0.00 0.00 71 1012.7
20260507214527 60 27 0.0 2.6 0.00 0.00 0.00 71 1012.7
20260507214025 60 27 0.9 2.6 0.00 0.00 0.00 70 1012.5
20260507213526 60 17 0.9 4.3 0.00 0.00 0.00 69 1012.4
20260507213028 60 11 0.9 4.3 0.00 0.00 0.00 69 1012.5
20260507212525 60 27 0.9 5.2 0.00 0.00 0.00 69 1012.4
20260507212027 60 12 1.7 5.2 0.00 0.00 0.00 69 1012.5
20260507211525 60 360 3.5 7.8 0.00 0.00 0.00 70 1012.5
20260507211025 60 5 4.3 8.7 0.00 0.00 0.00 70 1012.3
20260507210525 60 13 5.2 8.7 0.00 0.00 0.00 70 1012.3
20260507210028 60 360 5.2 7.8 0.00 0.00 0.00 69 1012.4
20260507205527 60 11 4.3 7.8 0.00 0.00 0.00 68 1012.3
20260507205023 60 13 5.2 7.8 0.00 0.00 0.00 69 1012.2
20260507204524 60 9 5.2 7.8 0.00 0.00 0.00 69 1012.1
20260507204024 60 15 4.3 8.7 0.00 0.00 0.00 69 1012.1
20260507203528 61 5 5.2 8.7 0.00 0.00 0.00 69 1012.1
20260507203025 61 355 5.2 8.7 0.00 0.00 0.00 68 1012.0
20260507202523 61 13 5.2 7.8 0.00 0.00 0.00 69 1011.9
20260507202022 61 28 5.2 7.8 0.00 0.00 0.00 68 1011.9
20260507201522 60 5 5.2 7.8 0.00 0.00 0.00 69 1011.8
20260507201026 60 14 4.3 7.0 0.00 0.00 0.00 69 1011.9
20260507200522 60 18 3.5 4.3 0.00 0.00 0.00 70 1011.9
20260507200022 60 5 3.5 5.2 0.00 0.00 0.00 70 1011.7
20260507195522 60 5 2.6 7.8 0.00 0.00 0.00 71 1011.7
20260507195021 60 355 4.3 7.8 0.00 0.00 0.00 71 1011.5
20260507194522 60 360 4.3 8.7 0.00 0.00 0.00 71 1011.5
20260507194021 60 355 4.3 8.7 0.00 0.00 0.00 72 1011.5
20260507193525 61 5 4.3 7.0 0.00 0.00 0.00 73 1011.5
20260507193021 61 21 4.3 7.0 0.00 0.00 0.00 74 1011.5
20260507192520 61 5 2.6 5.2 0.00 0.00 0.00 74 1011.5
20260507192021 61 355 3.5 7.0 0.00 0.00 0.00 75 1011.4
20260507191521 61 344 4.3 7.0 0.00 0.00 0.00 76 1011.5
20260507191021 62 360 1.7 4.3 0.00 0.00 0.00 77 1011.3
20260507190521 62 15 0.9 3.5 0.00 0.00 0.00 77 1011.4
20260507190020 62 123 0.0 0.0 0.00 0.00 0.00 77 1011.4
20260507185521 62 123 0.0 0.0 0.00 0.00 0.00 77 1011.3
20260507185019 62 123 0.0 0.0 0.00 0.00 0.00 77 1011.2
20260507184519 62 123 0.0 1.7 0.00 0.00 0.00 77 1011.1
20260507184018 62 123 0.0 1.7 0.00 0.00 0.00 76 1011.1
20260507183518 62 123 0.0 1.7 0.00 0.00 0.00 76 1011.1
20260507183019 62 123 0.9 2.6 0.00 0.00 0.00 76 1011.1
20260507182519 63 123 1.7 3.5 0.00 0.00 0.00 75 1011.0
20260507182021 63 123 1.7 3.5 0.00 0.00 0.00 74 1011.0
20260507181521 63 123 0.9 5.2 0.00 0.00 0.00 73 1010.8
20260507181019 63 117 2.6 5.2 0.00 0.00 0.00 72 1010.8
20260507180518 63 132 1.7 4.3 0.00 0.00 0.00 71 1010.7
20260507180017 64 134 0.9 4.3 0.00 0.00 0.00 70 1010.6
20260507175519 64 126 0.9 3.5 0.00 0.00 0.00 71 1010.6
20260507175016 64 124 1.7 3.5 0.00 0.00 0.00 70 1010.7
20260507174517 65 124 0.9 3.5 0.00 0.00 0.00 69 1010.5
20260507174016 65 130 1.7 4.3 0.00 0.00 0.00 71 1010.6
20260507173516 65 138 1.7 4.3 0.00 0.00 0.00 72 1010.6
20260507173027 65 136 2.6 5.2 0.00 0.00 0.00 71 1010.6
20260507172516 65 126 2.6 7.0 0.00 0.00 0.00 71 1010.6
20260507172021 65 128 3.5 7.0 0.00 0.00 0.00 71 1010.7
20260507171516 65 136 2.6 6.1 0.00 0.00 0.00 71 1010.6
20260507171016 65 126 1.7 6.1 0.00 0.00 0.00 71 1010.6
20260507170517 65 126 2.6 7.0 0.00 0.00 0.00 71 1010.6
20260507170016 65 117 4.3 7.0 0.00 0.00 0.00 70 1010.5
20260507165515 65 135 4.3 7.0 0.00 0.00 0.00 68 1010.5
20260507165015 65 125 3.5 7.8 0.00 0.00 0.00 67 1010.3
20260507164515 65 134 3.5 8.7 0.00 0.00 0.00 67 1010.3
20260507164015 66 143 4.3 8.7 0.00 0.00 0.00 67 1010.2
20260507163515 66 123 4.3 7.8 0.00 0.00 0.00 69 1010.1
20260507163014 66 121 5.2 7.8 0.00 0.00 0.00 68 1010.2
20260507162514 66 119 4.3 7.8 0.00 0.00 0.00 69 1010.1
20260507162014 66 105 5.2 8.7 0.00 0.00 0.00 68 1010.1
20260507161521 66 111 4.3 8.7 0.00 0.00 0.00 68 1010.1
20260507161014 66 119 6.1 8.7 0.00 0.00 0.00 67 1010.1
20260507160514 66 108 5.2 9.6 0.00 0.00 0.00 66 1010.2
20260507160018 66 130 5.2 10.4 0.00 0.00 0.00 65 1010.2
20260507155514 67 127 5.2 9.6 0.00 0.00 0.00 65 1010.3
20260507155013 67 117 6.1 8.7 0.00 0.00 0.00 65 1010.2
20260507154518 67 117 2.6 9.6 0.00 0.00 0.00 65 1010.2
20260507154012 67 106 5.2 10.4 0.00 0.00 0.00 65 1010.3
20260507153516 67 78 7.8 10.4 0.00 0.00 0.00 64 1010.3
20260507153013 67 84 3.5 10.4 0.00 0.00 0.00 66 1010.3
20260507152513 67 111 5.2 11.3 0.00 0.00 0.00 65 1010.2
20260507152012 68 104 7.0 11.3 0.00 0.00 0.00 65 1010.3
20260507151512 68 142 6.1 11.3 0.00 0.00 0.00 65 1010.2
20260507151012 68 146 2.6 9.6 0.00 0.00 0.00 66 1010.2
20260507150516 68 125 5.2 10.4 0.00 0.00 0.00 66 1010.4
20260507150011 69 142 7.0 10.4 0.00 0.00 0.00 65 1010.3
20260507145518 70 176 3.5 7.8 0.00 0.00 0.00 64 1010.4
20260507145010 69 164 1.7 4.3 0.00 0.00 0.00 63 1010.3
20260507144514 68 5 1.7 3.5 0.00 0.00 0.00 59 1010.5
20260507144010 67 137 0.9 3.5 0.00 0.00 0.00 59 1010.4
20260507143510 67 143 0.9 7.0 0.00 0.00 0.00 59 1010.6
20260507143009 68 130 3.5 7.0 0.00 0.00 0.00 62 1010.6
20260507142509 68 128 1.7 7.0 0.00 0.00 0.00 61 1010.7
20260507142017 68 123 1.7 5.2 0.00 0.00 0.00 63 1010.7
20260507141510 69 128 1.7 5.2 0.00 0.00 0.00 60 1010.9
20260507141009 69 56 1.7 5.2 0.00 0.00 0.00 58 1011.0
20260507140508 70 350 1.7 5.2 0.00 0.00 0.00 59 1011.0
20260507140008 70 78 0.9 7.0 0.00 0.00 0.00 60 1011.1
20260507135505 69 322 3.5 7.0 0.00 0.00 0.00 61 1011.3
20260507135004 68 16 2.6 7.0 0.00 0.00 0.00 65 1011.4
20260507134503 67 36 2.6 7.8 0.00 0.00 0.00 66 1011.5
20260507134005 66 91 4.3 7.8 0.00 0.00 0.00 70 1011.7
20260507133600 65 27 3.5 6.1 0.00 0.00 0.00 73 1011.6
20260507133059 63 161 0.9 3.5 0.00 0.00 0.00 77 1011.8
20260507132600 63 117 0.9 3.5 0.00 0.00 0.00 77 1011.8
20260507132056 62 115 1.7 3.5 0.00 0.00 0.00 78 1011.9
20260507131557 62 115 0.0 2.6 0.00 0.00 0.00 78 1011.9
20260507131057 62 111 0.0 2.6 0.00 0.00 0.00 79 1012.0
20260507130557 61 109 0.9 2.6 0.00 0.00 0.00 80 1012.1
20260507130108 61 109 0.9 2.6 0.00 0.00 0.00 80 1012.1
20260507125556 61 109 0.0 3.5 0.00 0.00 0.00 79 1012.2
20260507125058 61 109 0.9 3.5 0.00 0.00 0.00 79 1012.2
20260507124559 61 109 0.0 3.5 0.00 0.00 0.00 80 1012.2
20260507124056 61 109 0.9 5.2 0.00 0.00 0.00 80 1012.3
20260507123555 61 112 2.6 5.2 0.00 0.00 0.00 81 1012.3
20260507123055 61 138 0.9 2.6 0.00 0.00 0.00 81 1012.2
20260507122556 61 161 0.9 4.3 0.00 0.00 0.00 81 1012.3
20260507122055 61 161 0.0 5.2 0.00 0.00 0.00 81 1012.4
20260507121555 61 162 1.7 5.2 0.00 0.00 0.00 80 1012.3
20260507121058 61 186 1.7 5.2 0.00 0.00 0.00 80 1012.5
20260507120555 61 146 1.7 6.1 0.00 0.00 0.00 81 1012.4
20260507120054 61 132 1.7 7.0 0.00 0.00 0.00 81 1012.5
20260507115554 61 167 2.6 7.0 0.00 0.00 0.00 82 1012.5
20260507115053 61 128 2.6 4.3 0.00 0.00 0.00 83 1012.5
20260507114557 61 158 0.9 6.1 0.00 0.00 0.00 84 1012.5
20260507114053 61 134 1.7 7.0 0.00 0.00 0.00 83 1012.5
20260507113552 61 117 2.6 7.8 0.00 0.00 0.00 83 1012.6
20260507113052 61 127 3.5 9.6 0.00 0.00 0.00 82 1012.6
20260507112553 61 114 7.0 12.2 0.00 0.00 0.00 80 1012.6
20260507112053 62 115 7.8 12.2 0.00 0.00 0.00 78 1012.5
20260507111552 62 143 7.0 10.4 0.00 0.00 0.00 77 1012.6
20260507111055 63 121 6.1 11.3 0.00 0.00 0.00 75 1012.6
20260507110551 63 120 6.1 10.4 0.00 0.00 0.00 74 1012.5